Charlottesville, VA

6:05 PM EDT on June 18, 2018 (GMT -0400)
Charlottesville-Albemarle

Weather History for KCHO - July, 2014

Change the Weather History Date:

Sunday, July 20, 2014

  Actual Average Record
Temperature  
Mean Temperature 70 °F 76 °F  
Max Temperature 78 °F 86 °F 107 °F (1930)
Min Temperature 61 °F 65 °F 54 °F (1929)
Degree Days  
Heating Degree Days 0 0  
Month to date heating degree days 0 0  
Since 1 June heating degree days 2 11  
Since 1 July heating degree days 0 0  
Cooling Degree Days 5 11  
Month to date cooling degree days 214 215  
Year to date cooling degree days 602 520  
Since 1 June cooling degree days 486 434  
Growing Degree Days 19 (Base 50)    
Moisture  
Dew Point 62 °F    
Average Humidity 79    
Maximum Humidity 97    
Minimum Humidity 60    
Precipitation  
Precipitation 0.00 in 0.15 in 0.35 in (2002)
Month to date precipitation 2.20 2.75  
Year to date precipitation 23.32 22.95  
Sea Level Pressure  
Sea Level Pressure 30.11 in    
Wind  
Wind Speed 1 mph (North)    
Max Wind Speed 9 mph    
Max Gust Speed 12 mph    
Visibility 10 miles    
Events      
T = Trace of Precipitation, MM = Missing Value Source: NWS Daily Summary

Daily Weather History Graph

Daily Weather History Graph

Search for Another Location

Airport or City:

Astronomy

Jul. 20, 2014 Rise Set
Actual Time 6:06 AM EDT 8:33 PM EDT
Civil Twilight 5:36 AM EDT 9:03 PM EDT
Nautical Twilight 4:58 AM EDT 9:40 PM EDT
Astronomical Twilight 4:17 AM EDT 10:22 PM EDT
Moon 1:15 AM EDT (7/20) 3:16 PM EDT (7/20)
Length of Visible Light 15h 27m
Length of Day
14h 26m
Waning Crescent, 34% of the Moon is Illuminated
Jul 20
Waning Crescent
Jul 26
New
Aug 3
First Quarter
Aug 10
Full
Aug 17
Last Quarter

Hourly Weather History & Observations

Time (EDT) Temp. Dew Point Humidity Pressure Visibility Wind Dir Wind Speed Gust Speed Precip Events Conditions
12:53 AM 63.0 °F 60.1 °F 90% 30.13 in 10.0 mi North 6.9 mph - 0.01 in   Overcast
1:53 AM 63.0 °F 59.0 °F 87% 30.13 in 10.0 mi North 3.5 mph - N/A   Overcast
2:53 AM 61.0 °F 59.0 °F 93% 30.10 in 10.0 mi NNW 3.5 mph - N/A   Overcast
3:53 AM 62.1 °F 57.9 °F 86% 30.09 in 10.0 mi Calm Calm - N/A   Overcast
4:53 AM 62.1 °F 59.0 °F 90% 30.09 in 10.0 mi Calm Calm - N/A   Overcast
5:53 AM 62.1 °F 59.0 °F 90% 30.10 in 10.0 mi Calm Calm - N/A   Overcast
6:53 AM 63.0 °F 59.0 °F 87% 30.11 in 10.0 mi Calm Calm - N/A   Overcast
7:53 AM 64.0 °F 60.1 °F 87% 30.13 in 10.0 mi Calm Calm - N/A   Overcast
8:53 AM 66.9 °F 60.1 °F 79% 30.14 in 10.0 mi Calm Calm - N/A   Overcast
9:53 AM 70.0 °F 61.0 °F 73% 30.14 in 10.0 mi Calm Calm - N/A   Overcast
10:53 AM 73.9 °F 60.1 °F 62% 30.14 in 10.0 mi Calm Calm - N/A   Overcast
11:53 AM 75.0 °F 62.1 °F 64% 30.13 in 10.0 mi ESE 3.5 mph - N/A   Mostly Cloudy
12:51 PM 75.2 °F 62.6 °F 65% 30.13 in 10.0 mi Calm Calm - N/A   Mostly Cloudy
12:53 PM 77.0 °F 62.1 °F 60% 30.11 in 10.0 mi Variable 3.5 mph - N/A   Mostly Cloudy
1:53 PM 75.9 °F 62.1 °F 62% 30.10 in 10.0 mi SSW 4.6 mph - N/A   Overcast
2:53 PM 75.9 °F 64.0 °F 67% 30.09 in 10.0 mi Calm Calm - N/A   Overcast
3:53 PM 75.9 °F 64.9 °F 69% 30.09 in 10.0 mi Calm Calm - N/A   Overcast
4:53 PM 77.0 °F 64.0 °F 64% 30.08 in 10.0 mi Calm Calm - N/A   Overcast
5:53 PM 77.0 °F 64.0 °F 64% 30.07 in 10.0 mi Calm Calm - N/A   Overcast
6:53 PM 75.9 °F 66.0 °F 71% 30.09 in 10.0 mi NNW 3.5 mph - N/A   Overcast
7:53 PM 75.0 °F 66.0 °F 73% 30.09 in 10.0 mi North 3.5 mph - N/A   Overcast
8:53 PM 73.9 °F 66.0 °F 76% 30.09 in 10.0 mi Calm Calm - N/A   Overcast
9:53 PM 73.9 °F 66.0 °F 76% 30.11 in 10.0 mi Calm Calm - N/A   Overcast
10:53 PM 73.0 °F 66.9 °F 81% 30.12 in 10.0 mi NNE 3.5 mph - N/A   Overcast
11:53 PM 72.0 °F 66.9 °F 84% 30.11 in 10.0 mi Calm Calm - N/A   Overcast